Voltar ao catálogo

STARLINK-36580

AtivoComunicaçõesSSO
NORAD 67546·PAYLOAD·🇺🇸 United States

Lançado Jan 22, 2026 de Vandenberg Space Force Base

Loading…

Próximas Passagens (próximas 24 horas)

TLE

AtualizadoSource: CelesTrak SupGP

Época: Sep 15, 2026, 03:21 UTC

1 67546C 26014Q   26258.14006944  .00062978  00000+0  19544-2 0  2586
2 67546  97.2843 143.5413 0001897  95.3727 285.6384 15.33416069    17

Acompanhe STARLINK-36580 em tempo real com AllMySat

Download on the App Store